| time (UTC) | temp F | wind direction | speed MPH | gust MPH | rain 1hr in | rain 24hr in | rain mn in | humidity % | barometer mb |
| 20260902211556 | 88 | 0 | 3.0 | 7.0 | 0.01 | 0.32 | 0.32 | 62 | 1016.8 |
| 20260902210054 | 87 | 78 | 1.0 | 9.0 | 0.01 | 0.32 | 0.32 | 63 | 1017.1 |
| 20260902204551 | 87 | 109 | 4.0 | 10.0 | 0.01 | 0.32 | 0.32 | 63 | 1017.2 |
| 20260902203048 | 86 | 82 | 1.0 | 8.0 | 0.00 | 0.31 | 0.31 | 63 | 1017.2 |
| 20260902201554 | 86 | 275 | 1.0 | 8.0 | 0.00 | 0.31 | 0.31 | 66 | 1017.4 |
| 20260902200056 | 84 | 149 | 4.0 | 9.0 | 0.00 | 0.31 | 0.31 | 67 | 1017.4 |
| 20260902194604 | 83 | 138 | 2.0 | 11.0 | 0.00 | 0.31 | 0.31 | 71 | 1017.4 |
| 20260902193057 | 83 | 86 | 5.0 | 10.0 | 0.00 | 0.31 | 0.31 | 70 | 1017.4 |
| 20260902191553 | 84 | 120 | 3.0 | 9.0 | 0.01 | 0.31 | 0.31 | 67 | 1017.7 |
| 20260902190105 | 84 | 76 | 2.0 | 5.0 | 0.01 | 0.31 | 0.31 | 69 | 1018.0 |
| 20260902184602 | 81 | 346 | 1.0 | 8.0 | 0.01 | 0.31 | 0.31 | 73 | 1018.2 |
| 20260902183100 | 78 | 246 | 0.0 | 6.0 | 0.01 | 0.31 | 0.31 | 80 | 1018.5 |
| 20260902181554 | 79 | 225 | 1.0 | 5.0 | 0.00 | 0.30 | 0.30 | 78 | 1018.6 |
| 20260902180133 | 79 | 18 | 2.0 | 6.0 | 0.00 | 0.30 | 0.30 | 77 | 1018.4 |
| 20260902174548 | 77 | 309 | 3.0 | 9.0 | 0.00 | 0.30 | 0.30 | 78 | 1018.0 |
| 20260902173053 | 77 | 313 | 0.0 | 6.0 | 0.01 | 0.30 | 0.30 | 80 | 1018.9 |
| 20260902171554 | 79 | 51 | 5.0 | 18.0 | 0.01 | 0.30 | 0.30 | 75 | 1019.4 |
| 20260902170050 | 83 | 340 | 9.0 | 18.0 | 0.01 | 0.30 | 0.30 | 65 | 1019.8 |
| 20260902164556 | 83 | 74 | 10.0 | 20.0 | 0.01 | 0.30 | 0.30 | 71 | 1019.6 |
| 20260902163059 | 85 | 22 | 7.0 | 13.0 | 0.00 | 0.29 | 0.29 | 74 | 1019.4 |
| 20260902161555 | 88 | 14 | 8.0 | 12.0 | 0.01 | 0.29 | 0.29 | 67 | 1019.4 |
| 20260902160100 | 90 | 80 | 1.0 | 4.0 | 0.01 | 0.29 | 0.29 | 63 | 1018.9 |
| 20260902154556 | 89 | 48 | 2.0 | 6.0 | 0.01 | 0.29 | 0.29 | 64 | 1018.8 |
| 20260902153050 | 88 | 0 | 1.0 | 7.0 | 0.02 | 0.29 | 0.29 | 65 | 1018.8 |
| 20260902151548 | 87 | 0 | 1.0 | 7.0 | 0.01 | 0.28 | 0.28 | 67 | 1018.5 |
| 20260902150048 | 86 | 196 | 1.0 | 5.0 | 0.01 | 0.28 | 0.28 | 69 | 1018.5 |
| 20260902144551 | 85 | 139 | 3.0 | 6.0 | 0.02 | 0.28 | 0.28 | 71 | 1018.3 |
| 20260902143050 | 84 | 75 | 1.0 | 3.0 | 0.01 | 0.27 | 0.27 | 75 | 1018.5 |
| 20260902141549 | 83 | 83 | 1.0 | 4.0 | 0.02 | 0.27 | 0.27 | 77 | 1018.4 |
| 20260902140047 | 82 | 78 | 1.0 | 3.0 | 0.02 | 0.27 | 0.27 | 80 | 1018.5 |
| 20260902134553 | 79 | 0 | 0.0 | 2.0 | 0.02 | 0.26 | 0.26 | 83 | 1018.3 |
| 20260902133058 | 78 | 0 | 0.0 | 3.0 | 0.03 | 0.26 | 0.26 | 85 | 1018.3 |
| 20260902131602 | 76 | 58 | 1.0 | 2.0 | 0.02 | 0.25 | 0.25 | 91 | 1018.6 |
| 20260902124603 | 74 | 185 | 0.0 | 2.0 | 0.03 | 0.24 | 0.24 | 95 | 1018.8 |
| 20260902123100 | 74 | 185 | 1.0 | 2.0 | 0.03 | 0.23 | 0.23 | 95 | 1018.4 |
| 20260902121611 | 73 | 0 | 0.0 | 4.0 | 0.04 | 0.23 | 0.23 | 95 | 1018.4 |
| 20260902120056 | 72 | 153 | 1.0 | 3.0 | 0.04 | 0.22 | 0.22 | 95 | 1018.2 |
| 20260902114554 | 71 | 0 | 0.0 | 2.0 | 0.04 | 0.21 | 0.21 | 95 | 1018.2 |
| 20260902113053 | 71 | 0 | 0.0 | 3.0 | 0.04 | 0.20 | 0.20 | 94 | 1018.2 |
| 20260902111602 | 71 | 0 | 0.0 | 2.0 | 0.04 | 0.19 | 0.19 | 94 | 1018.0 |
| 20260902110057 | 71 | 0 | 0.0 | 3.0 | 0.05 | 0.18 | 0.18 | 94 | 1018.2 |
| 20260902104555 | 71 | 0 | 0.0 | 4.0 | 0.06 | 0.17 | 0.17 | 93 | 1018.0 |
| 20260902103048 | 71 | 0 | 1.0 | 4.0 | 0.08 | 0.16 | 0.16 | 93 | 1018.1 |
| 20260902101618 | 71 | 157 | 1.0 | 5.0 | 0.13 | 0.15 | 0.15 | 93 | 1018.2 |
| 20260902100107 | 71 | 196 | 1.0 | 5.0 | 0.13 | 0.13 | 0.13 | 93 | 1018.4 |
| 20260902094551 | 71 | 213 | 2.0 | 8.0 | 0.11 | 0.11 | 0.11 | 92 | 1018.1 |
| 20260902093048 | 72 | 32 | 3.0 | 19.0 | 0.08 | 0.08 | 0.08 | 90 | 1018.3 |
| 20260902091548 | 73 | 171 | 4.0 | 9.0 | 0.02 | 0.02 | 0.02 | 86 | 1018.6 |
| 20260902090053 | 72 | 0 | 0.0 | 2.0 | 0.00 | 0.00 | 0.00 | 87 | 1017.9 |
| 20260902084612 | 72 | 172 | 0.0 | 3.0 | 0.00 | 0.00 | 0.00 | 86 | 1017.9 |
| 20260902083057 | 72 | 0 | 1.0 | 4.0 | 0.00 | 0.00 | 0.00 | 87 | 1018.0 |
| 20260902081602 | 72 | 0 | 0.0 | 4.0 | 0.00 | 0.00 | 0.00 | 86 | 1017.9 |
| 20260902080049 | 73 | 159 | 1.0 | 4.0 | 0.00 | 0.00 | 0.00 | 85 | 1017.8 |
| 20260902074600 | 73 | 205 | 2.0 | 4.0 | 0.00 | 0.00 | 0.00 | 85 | 1017.7 |
| 20260902073051 | 73 | 165 | 0.0 | 4.0 | 0.00 | 0.00 | 0.00 | 84 | 1017.6 |
| 20260902071552 | 74 | 0 | 0.0 | 3.0 | 0.00 | 0.00 | 0.00 | 84 | 1017.7 |
| 20260902070056 | 74 | 173 | 0.0 | 2.0 | 0.00 | 0.00 | 0.00 | 82 | 1017.6 |
| 20260902064557 | 74 | 0 | 0.0 | 2.0 | 0.00 | 0.00 | 0.00 | 82 | 1017.7 |
| 20260902063054 | 75 | 0 | 0.0 | 3.0 | 0.00 | 0.00 | 0.00 | 80 | 1017.7 |
| 20260902061604 | 75 | 66 | 0.0 | 2.0 | 0.00 | 0.00 | 0.00 | 80 | 1017.6 |
| 20260902060049 | 76 | 66 | 0.0 | 3.0 | 0.00 | 0.00 | 0.00 | 79 | 1017.9 |
| 20260902054553 | 76 | 0 | 0.0 | 6.0 | 0.00 | 0.00 | 0.00 | 79 | 1018.1 |
| 20260902053114 | 76 | 0 | 0.0 | 2.0 | 0.00 | 0.00 | 0.00 | 79 | 1017.9 |
| 20260902051556 | 76 | 266 | 0.0 | 3.0 | 0.00 | 0.00 | 0.00 | 78 | 1018.2 |
| 20260902050104 | 76 | 265 | 1.0 | 2.0 | 0.00 | 0.00 | 0.00 | 78 | 1018.0 |
| 20260902044552 | 76 | 265 | 1.0 | 3.0 | 0.00 | 0.00 | 0.00 | 78 | 1018.0 |
| 20260902043106 | 77 | 202 | 0.0 | 2.0 | 0.00 | 0.00 | 0.00 | 76 | 1017.8 |
| 20260902041554 | 77 | 0 | 0.0 | 1.0 | 0.00 | 0.00 | 0.00 | 74 | 1017.7 |
| 20260902040053 | 78 | 0 | 0.0 | 1.0 | 0.00 | 0.00 | 0.00 | 73 | 1017.4 |
| 20260902034604 | 78 | 0 | 0.0 | 2.0 | 0.00 | 0.00 | 0.00 | 72 | 1017.3 |
| 20260902033100 | 79 | 0 | 0.0 | 2.0 | 0.00 | 0.00 | 0.00 | 70 | 1017.0 |
| 20260902031552 | 81 | 203 | 0.0 | 5.0 | 0.00 | 0.00 | 0.00 | 67 | 1016.8 |
| 20260902030110 | 81 | 225 | 3.0 | 10.0 | 0.00 | 0.00 | 0.00 | 66 | 1016.5 |
| 20260902024601 | 81 | 209 | 2.0 | 8.0 | 0.00 | 0.00 | 0.00 | 66 | 1016.4 |
| 20260902023058 | 80 | 157 | 1.0 | 4.0 | 0.00 | 0.00 | 0.00 | 68 | 1016.4 |
| 20260902021551 | 81 | 172 | 1.0 | 6.0 | 0.00 | 0.00 | 0.00 | 68 | 1016.5 |
| 20260902020056 | 82 | 209 | 0.0 | 2.0 | 0.00 | 0.00 | 0.00 | 67 | 1016.7 |
| 20260902014557 | 82 | 267 | 1.0 | 5.0 | 0.00 | 0.00 | 0.00 | 65 | 1016.7 |
| 20260902013056 | 81 | 167 | 2.0 | 5.0 | 0.00 | 0.00 | 0.00 | 67 | 1016.4 |
| 20260902011554 | 81 | 0 | 0.0 | 2.0 | 0.00 | 0.00 | 0.00 | 69 | 1016.4 |
| 20260902010109 | 82 | 215 | 0.0 | 3.0 | 0.00 | 0.00 | 0.00 | 67 | 1016.2 |
| 20260902004549 | 83 | 231 | 1.0 | 6.0 | 0.00 | 0.00 | 0.00 | 64 | 1015.8 |
| 20260902003100 | 85 | 186 | 3.0 | 10.0 | 0.00 | 0.00 | 0.00 | 62 | 1015.7 |
| 20260902001558 | 85 | 212 | 2.0 | 10.0 | 0.00 | 0.00 | 0.00 | 60 | 1015.6 |
| 20260902000052 | 85 | 151 | 8.0 | 15.0 | 0.00 | 0.00 | 0.00 | 60 | 1015.4 |
| 20260901234559 | 86 | 205 | 7.0 | 19.0 | 0.00 | 0.00 | 0.00 | 60 | 1015.3 |
| 20260901233058 | 86 | 144 | 8.0 | 18.0 | 0.00 | 0.00 | 0.00 | 59 | 1015.2 |
| 20260901231555 | 87 | 236 | 8.0 | 19.0 | 0.00 | 0.00 | 0.00 | 59 | 1015.2 |
| 20260901230051 | 87 | 174 | 7.0 | 13.0 | 0.00 | 0.00 | 0.00 | 58 | 1015.2 |
| 20260901224554 | 88 | 148 | 7.0 | 18.0 | 0.00 | 0.00 | 0.00 | 57 | 1015.4 |
| 20260901223056 | 89 | 232 | 7.0 | 23.0 | 0.00 | 0.00 | 0.00 | 56 | 1015.1 |
| 20260901221559 | 89 | 158 | 10.0 | 24.0 | 0.00 | 0.00 | 0.00 | 55 | 1015.0 |
| 20260901214602 | 91 | 147 | 7.0 | 14.0 | 0.00 | 0.00 | 0.00 | 55 | 1015.1 |
| 20260901213102 | 91 | 236 | 5.0 | 16.0 | 0.00 | 0.00 | 0.00 | 55 | 1015.0 |